TimeAST,TemperatureF,Dew PointF,Humidity,Sea Level PressureIn,VisibilityMPH,Wind Direction,Wind SpeedMPH,Gust SpeedMPH,PrecipitationIn,Events,Conditions,WindDirDegrees,DateUTC
12:00 AM,80.6,73.4,79,29.89,-9999.0,ENE,11.5,-,N/A,,Unknown,70,2013-11-29 04:00:00
1:00 AM,80.6,73.4,79,29.86,-9999.0,ENE,9.2,-,N/A,,Unknown,60,2013-11-29 05:00:00
2:00 AM,80.6,73.4,79,29.83,-9999.0,ENE,10.4,-,N/A,,Unknown,60,2013-11-29 06:00:00
3:00 AM,77.0,73.4,89,29.83,-9999.0,East,9.2,-,N/A,,Unknown,80,2013-11-29 07:00:00
4:00 AM,77.0,75.2,94,29.83,-9999.0,ENE,9.2,-,N/A,,Unknown,70,2013-11-29 08:00:00
5:00 AM,78.8,73.4,83,29.83,-9999.0,ENE,9.2,-,N/A,,Unknown,60,2013-11-29 09:00:00
6:00 AM,77.0,71.6,83,29.86,-9999.0,ENE,16.1,-,N/A,,Unknown,70,2013-11-29 10:00:00
7:00 AM,78.8,71.6,78,29.86,-9999.0,ENE,11.5,-,N/A,,Unknown,60,2013-11-29 11:00:00
8:00 AM,80.6,71.6,74,29.89,-9999.0,ENE,12.7,-,N/A,,Unknown,70,2013-11-29 12:00:00
9:00 AM,84.2,71.6,66,29.92,6.2,ENE,17.3,-,N/A,,Scattered Clouds,70,2013-11-29 13:00:00
10:00 AM,84.2,71.6,66,29.92,6.2,East,19.6,-,N/A,,Scattered Clouds,80,2013-11-29 14:00:00
11:00 AM,86.0,73.4,66,29.92,-9999.0,ENE,19.6,-,N/A,,Unknown,70,2013-11-29 15:00:00
12:00 PM,84.2,71.6,66,29.92,-9999.0,East,20.7,-,N/A,,Unknown,80,2013-11-29 16:00:00
1:00 PM,86.0,73.4,66,29.89,6.2,ENE,20.7,-,N/A,,Scattered Clouds,60,2013-11-29 17:00:00
2:00 PM,84.2,73.4,70,29.86,-9999.0,East,17.3,-,N/A,,Unknown,80,2013-11-29 18:00:00
3:00 PM,84.2,71.6,66,29.83,6.2,ENE,17.3,-,N/A,,Scattered Clouds,70,2013-11-29 19:00:00
4:00 PM,82.4,75.2,79,29.83,-9999.0,ENE,12.7,-,N/A,,Unknown,70,2013-11-29 20:00:00
5:00 PM,82.4,73.4,74,29.83,6.2,ENE,15.0,-,N/A,,Scattered Clouds,60,2013-11-29 21:00:00
6:00 PM,82.4,73.4,74,29.83,6.2,ENE,13.8,-,N/A,,Scattered Clouds,70,2013-11-29 22:00:00
7:00 PM,80.6,73.4,79,29.83,6.2,ENE,8.1,-,N/A,,Partly Cloudy,70,2013-11-29 23:00:00
8:00 PM,80.6,73.4,79,29.86,6.2,ENE,11.5,-,N/A,,Partly Cloudy,60,2013-11-30 00:00:00
9:00 PM,80.6,73.4,79,29.89,-9999.0,NE,12.7,-,N/A,,Unknown,50,2013-11-30 01:00:00